FENGYUN 1C DEB

Satellite information

Favourite Embed

Satellite Type and Status

DEBRISIN ORBIT

Key statistics

Satellite FENGYUN 1C DEB at a glance.

Uptime

9715

Days in orbit

Revolutions

≈ 14.6

Per day

Orbit

SSO

Sun Synchronous Orbit

Inclination

99.1

Latest

Satellite identification and parameters

Extended collection of information and parameters for FENGYUN 1C DEB.

Object identification

Identified? True

Debris? True

Object name: FENGYUN 1C DEB

International designator: 1999-025DSL

Object number (NORAD): 36163

Object ID (CCSDS): 36163

Country: PEOPLES REPUBLIC OF CHINA (PRC)

Current information (Y/N): Y

RCS size: SMALL

Orbital parameters

Period: 98.701 minutes

Inclination: 99.0783 deg

SMA: 7074.706 km

Apoapsis: 723.768 km

Periapsis: 669.374 km

RAAN: 188.7276 deg

Eccentricy: 0.00384423

Argument of periapsis: 77.4481 deg

Mean anomaly: 283.1011 deg

Mean motion: 14.58949248 rev/day

Mean motion (dot): 0.00029856 rev/day2

B* drag term: 0.0062859017 1/REarth

Two-line elements (TLE)

Creation date: Dec. 11, 2025, 7:14 p.m.

Reference frame: TEME

Reference center: EARTH

Epoch: Dec. 10, 2025, 7:49 p.m. UTC

TLE line 0: 0 FENGYUN 1C DEB

TLE line 1: 1 36163U 99025DSL 25344.82595186 .00029856 00000-0 62859-2 0 9998

TLE line 2: 2 36163 99.0783 188.7276 0038442 77.4481 283.1011 14.58949248891590

Live tracking on map

Real-time ground track for satellite FENGYUN 1C DEB.

In-orbit conjunctions

A list of the most updated potential collisions computed for object FENGYUN 1C DEB.

Target Orbit TCA Probability of collision Miss distance Type
DMSP 5D-2 F13 DEB SSO 2025-08-04 07:50:56 0.0001327671 44.0 (m) DEBRIS
FUSE 1 LEO 2025-07-27 06:50:09 0.0001183244 191.0 (m) PAYLOAD
CZ-6A DEB LEO 2024-10-02 07:22:15 0.0003049649 734.0 (m) DEBRIS

Associated space launch

Chinese polar orbiting meteorological satellite

FENGYUN 1C DEB was lifted into orbit during the mission ‘Long March 4B | Feng Yun 1C’, on board a Long March 4B space rocket.

The launch took place on May 10, 1999, 1:33 a.m. from Launch Complex 7.

For more information about the launch, click the button.

Launch to space Long March 4B | Feng Yun 1C
Long March 4B | Feng Yun 1C

Agency: N/A

Status: Launch Successful

Launch date: May 10, 1999, 1:33 a.m. UTC

Rocket: Long March 4B

Launch pad: Launch Complex 7

Location: Taiyuan Satellite Launch Center, People's Republic of China

...

Latest news about this satellite

There are no fresh news available about this satellite. Check back as we update our databases every day.


Newsletter sign-up

Weekly statistics, charts and insights to help you stay on top of the space industry.